Date String (YYYY-MM-DD hh:mm:ss) UTC,Instrument flags,Ambient pressure (hPa),Sample flow (lpm),Bypass flow (lpm),Sample temperature (°C),Ambient temperature (°C),ASC tube jacket temperature (°C),LED temperature (°C),Box temperature (°C),Sample RH (%),Span deviation,Mass concentration (μg/m³),Mass concentration (μg/m³),Mass concentration (μg/m³)
DateTimeUTC,F1_M11,P_M11,Q1_M11,Q2_M11,T1_M11,T2_M11,T3_M11,T4_M11,T5_M11,U1_M11,ZSPAN_M11,X0_M11,X2_M11,X1_M11
2022-06-21 18:00:00,,0834.8,4.99,0.00,29.4,28.5,00.0,38.1,31.4,14.7,0000.0,0010.62,0003.44,0001.61
2022-06-21 18:01:00,,0834.9,5.00,0.00,29.4,28.6,00.0,38.2,31.4,14.7,0000.0,0010.02,0003.42,0001.62
2022-06-21 18:02:00,,0834.9,5.01,0.00,29.5,28.6,00.0,38.2,31.4,14.7,0000.0,0009.60,0003.34,0001.63
2022-06-21 18:03:00,,0834.9,5.00,0.00,29.5,28.5,00.0,38.2,31.4,14.6,0000.0,0009.07,0003.25,0001.63
2022-06-21 18:04:00,,0834.9,5.00,0.00,29.4,27.6,00.0,38.1,31.2,14.8,0000.0,0008.94,0003.25,0001.64
2022-06-21 18:05:00,,0834.9,5.00,0.00,29.4,27.1,00.0,38.1,31.0,14.8,0000.0,0008.82,0003.26,0001.64
2022-06-21 18:06:00,,0834.8,4.99,0.00,29.3,27.1,00.0,38.1,31.0,14.8,0000.0,0008.51,0003.28,0001.66
2022-06-21 18:07:00,,0834.8,5.01,0.00,29.3,27.1,00.0,38.1,31.0,15.0,0000.0,0008.00,0003.27,0001.65
2022-06-21 18:08:00,,0834.7,5.00,0.00,29.2,27.3,00.0,38.1,31.0,15.0,0000.0,0007.89,0003.28,0001.65
2022-06-21 18:09:00,,0834.9,5.00,0.00,29.2,27.4,00.0,38.0,31.0,14.9,0000.0,0007.93,0003.29,0001.65
2022-06-21 18:10:00,,0834.7,5.00,0.00,29.2,27.6,00.0,38.0,31.1,15.0,0000.0,0008.49,0003.35,0001.66
2022-06-21 18:11:00,,0834.7,5.01,0.00,29.2,27.8,00.0,38.0,31.1,14.9,0000.0,0008.64,0003.37,0001.67
2022-06-21 18:12:00,,0834.7,5.01,0.00,29.2,27.9,00.0,38.0,31.1,14.9,0000.0,0008.71,0003.41,0001.68
2022-06-21 18:13:00,,0834.7,4.99,0.00,29.3,28.0,00.0,38.1,31.2,15.0,0000.0,0009.21,0003.47,0001.69
2022-06-21 18:14:00,,0834.7,5.00,0.00,29.3,28.1,00.0,38.1,31.2,15.0,0000.0,0009.47,0003.55,0001.71
2022-06-21 18:15:00,,0834.7,5.00,0.00,29.3,28.2,00.0,38.1,31.2,15.0,0000.0,0009.92,0003.60,0001.72
2022-06-21 18:16:00,,0834.7,5.01,0.00,29.3,28.3,00.0,38.1,31.3,15.1,0000.0,0010.45,0003.65,0001.73
2022-06-21 18:17:00,,0834.7,5.01,0.00,29.4,28.4,00.0,38.1,31.3,15.0,0000.0,0010.91,0003.69,0001.73
2022-06-21 18:18:00,,0834.7,5.00,0.00,29.4,28.5,00.0,38.1,31.4,14.9,0000.0,0010.90,0003.69,0001.74
2022-06-21 18:19:00,,0834.7,5.00,0.00,29.4,28.6,00.0,38.1,31.4,15.1,0000.0,0010.92,0003.69,0001.75
2022-06-21 18:20:00,,0834.7,5.01,0.00,29.5,28.4,00.0,38.1,31.4,15.0,0000.0,0011.27,0003.68,0001.76
2022-06-21 18:21:00,,0834.7,5.01,0.00,29.4,27.8,00.0,38.1,31.2,15.0,0000.0,0010.92,0003.67,0001.75
2022-06-21 18:22:00,,0834.6,5.00,0.00,29.4,27.6,00.0,38.1,31.1,15.0,0000.0,0011.15,0003.68,0001.76
2022-06-21 18:23:00,,0834.6,5.00,0.00,29.3,27.6,00.0,38.1,31.1,14.9,0000.0,0011.50,0003.69,0001.78
2022-06-21 18:24:00,,0834.6,5.01,0.00,29.3,27.6,00.0,38.1,31.1,14.9,0000.0,0011.00,0003.66,0001.79
2022-06-21 18:25:00,,0834.6,5.00,0.00,29.3,27.8,00.0,38.1,31.1,14.8,0000.0,0010.91,0003.66,0001.78
2022-06-21 18:26:00,,0834.6,5.01,0.00,29.3,27.9,00.0,38.1,31.2,14.8,0000.0,0010.44,0003.62,0001.77
2022-06-21 18:27:00,,0834.5,5.01,0.00,29.3,28.0,00.0,38.1,31.2,14.9,0000.0,0009.99,0003.58,0001.78
2022-06-21 18:28:00,,0834.6,4.99,0.00,29.3,28.1,00.0,38.1,31.2,14.9,0000.0,0009.78,0003.57,0001.79
2022-06-21 18:29:00,,0834.7,5.01,0.00,29.4,28.2,00.0,38.1,31.3,15.0,0000.0,0010.08,0003.53,0001.80
2022-06-21 18:30:00,,0834.7,5.00,0.00,29.4,28.3,00.0,38.1,31.3,15.0,0000.0,0009.88,0003.48,0001.78
2022-06-21 18:31:00,,0834.6,5.00,0.00,29.4,28.4,00.0,38.1,31.3,15.0,0000.0,0009.58,0003.48,0001.78
2022-06-21 18:32:00,,0834.6,5.00,0.00,29.4,28.5,00.0,38.2,31.4,15.1,0000.0,0009.50,0003.49,0001.77
2022-06-21 18:33:00,,0834.5,4.99,0.00,29.5,28.5,00.0,38.2,31.4,15.1,0000.0,0009.12,0003.49,0001.76
2022-06-21 18:34:00,,0834.5,5.01,0.00,29.4,27.8,00.0,38.1,31.3,15.1,0000.0,0008.49,0003.42,0001.73
2022-06-21 18:35:00,,0834.5,4.98,0.00,29.4,27.1,00.0,38.1,31.0,15.1,0000.0,0008.47,0003.39,0001.70
2022-06-21 18:36:00,,0834.5,5.01,0.00,29.3,26.9,00.0,38.0,31.0,15.4,0000.0,0008.46,0003.37,0001.70
2022-06-21 18:37:00,,0834.5,5.00,0.00,29.2,27.0,00.0,38.0,30.9,15.4,0000.0,0009.13,0003.38,0001.69
2022-06-21 18:38:00,,0834.5,4.99,0.00,29.2,27.1,00.0,38.0,30.9,15.4,0000.0,0009.03,0003.37,0001.69
2022-06-21 18:39:00,,0834.5,4.99,0.00,29.2,27.3,00.0,38.0,31.0,15.5,0000.0,0008.86,0003.34,0001.68
2022-06-21 18:40:00,,0834.5,5.00,0.00,29.2,27.5,00.0,38.0,31.0,15.7,0000.0,0008.78,0003.39,0001.65
2022-06-21 18:41:00,,0834.5,5.00,0.00,29.2,27.6,00.0,38.0,31.0,15.6,0000.0,0009.07,0003.42,0001.65
2022-06-21 18:42:00,,0834.4,5.00,0.00,29.2,27.8,00.0,38.0,31.1,15.4,0000.0,0009.21,0003.41,0001.65
2022-06-21 18:43:00,,0834.5,5.00,0.00,29.2,27.9,00.0,38.0,31.1,15.2,0000.0,0009.05,0003.34,0001.64
2022-06-21 18:44:00,,0834.5,4.99,0.00,29.2,28.1,00.0,38.0,31.2,15.1,0000.0,0009.57,0003.32,0001.64
2022-06-21 18:45:00,,0834.4,5.00,0.00,29.3,28.2,00.0,38.0,31.2,14.9,0000.0,0009.71,0003.36,0001.65
2022-06-21 18:46:00,,0834.4,5.00,0.00,29.3,28.3,00.0,38.0,31.2,14.8,0000.0,0010.22,0003.43,0001.66
2022-06-21 18:47:00,,0834.4,5.00,0.00,29.3,28.4,00.0,38.1,31.3,14.9,0000.0,0010.46,0003.44,0001.65
2022-06-21 18:48:00,,0834.4,5.00,0.00,29.3,28.5,00.0,38.1,31.3,15.0,0000.0,0010.12,0003.44,0001.64
2022-06-21 18:49:00,,0834.4,4.99,0.00,29.4,28.5,00.0,38.1,31.4,15.2,0000.0,0010.73,0003.44,0001.63
2022-06-21 18:50:00,,0834.5,5.00,0.00,29.4,28.5,00.0,38.1,31.4,15.2,0000.0,0011.01,0003.45,0001.61
2022-06-21 18:51:00,,0834.4,5.01,0.00,29.4,27.9,00.0,38.1,31.3,15.0,0000.0,0011.03,0003.50,0001.60
2022-06-21 18:52:00,,0834.4,5.01,0.00,29.4,27.5,00.0,38.0,31.2,14.8,0000.0,0011.30,0003.51,0001.61
2022-06-21 18:53:00,,0834.4,5.00,0.00,29.3,27.5,00.0,38.0,31.1,14.8,0000.0,0011.24,0003.51,0001.60
2022-06-21 18:54:00,,0834.4,4.99,0.00,29.3,27.6,00.0,38.0,31.1,15.0,0000.0,0011.37,0003.53,0001.59
2022-06-21 18:55:00,,0834.4,5.00,0.00,29.3,27.7,00.0,38.1,31.1,15.1,0000.0,0011.35,0003.55,0001.59
2022-06-21 18:56:00,,0834.4,4.99,0.00,29.3,27.8,00.0,38.1,31.1,15.0,0000.0,0011.77,0003.56,0001.57
2022-06-21 18:57:00,,0834.4,5.00,0.00,29.3,27.9,00.0,38.1,31.2,15.0,0000.0,0011.39,0003.51,0001.57
2022-06-21 18:58:00,,0834.4,5.00,0.00,29.3,28.1,00.0,38.1,31.2,15.0,0000.0,0011.64,0003.45,0001.57
2022-06-21 18:59:00,,0834.5,5.01,0.00,29.3,28.2,00.0,38.1,31.3,15.0,0000.0,0011.35,0003.43,0001.57
